BEIDOU-3 M21

Last updated on Oct. 20, 2020, 5:52 a.m. UTC

1 44793U 19078A   20293.42068414 -.00000099  00000-0  10000-3 0  9990
2 44793  55.0588  11.4679 0005299 346.9153  53.7780  1.86232124  6166
UTC
Height (km)
Latitude
Longitude
Inclination
Orbital Period
UTC large
Height (km)
Speed (km/s)
/
Latitude / Longitude
Inclination (degrees)
Orbital Period (minutes)
Azimuth
Elevation
Range (km)
Doppler Factor
iOS Compass Heading
iOS Angle

Next 30 passes for location: Hong Kong

Rise time Rise Azimuth (degrees) Set time Set Azimuth (degrees) Duration Max altitude (degrees)

No matching passes for this satellites